Location: Tel Aviv
(32.0670°N, 34.7670°E)
Time: 13:44:48
(UTC+02:00)

Envisat - Pass Details

Date: 29 November 2021
Orbit: 764 x 766 km, 98.2° (Epoch: 20 January)

Event Time Altitude Azimuth Distance (km) Brightness Sun altitude
Rises 05:40:55 0° 353° (N) 3,236 6.0 -8.9°
Reaches altitude 10° 05:43:46 10° 337° (NNW) 2,305 5.1 -8.3°
Maximum altitude 05:47:22 20° 292° (WNW) 1,716 4.2 -7.6°
Drops below altitude 10° 05:50:58 10° 246° (WSW) 2,296 5.1 -6.9°
Sets 05:53:49 0° 230° (SW) 3,217 5.9 -6.3°
